Hourly Data Report for May 15, 2022

TORONTO CITY
ONTARIO
Current Station Operator: ECCC - MSC

43°40'00.000" N
79°24'00.000" W
112.50 m
6158355
71508
XTO

Download Data

Hourly Data (May 2022)
Hourly Data Report for May 15, 2022
TIME
LST
Temp Definition
°C
Dew Point Definition
°C
Rel Hum Definition
%
Precip. Amount Definition
mm

Wind Dir Definition
10's deg

Wind Spd Definition
km/h
Visibility Definition
km
Stn Press Definition
kPa
Hmdx Definition


Wind Chill Definition


Weather Definition


00:00 19.8 15.0 74 0.0       99.71     LegendNANA
01:00 19.6 14.9 74 0.0       99.63     LegendNANA
02:00 18.3 14.3 78 0.0       99.64     LegendNANA
03:00 17.0 13.4 79 0.0       99.66     LegendNANA
04:00 15.6 13.3 86 0.0       99.63     LegendNANA
05:00 16.0 14.0 88 0.0       99.62     LegendNANA
06:00 17.1 14.9 86 0.0       99.67     LegendNANA
07:00 20.1 15.5 75 0.0       99.71     LegendNANA
08:00 20.6 14.6 69 0.0       99.71     LegendNANA
09:00 22.6 14.8 62 0.0       99.70 26   LegendNANA
10:00 22.3 15.5 65 0.0       99.70 27   LegendNANA
11:00 23.9 15.9 61 0.0       99.70 28   LegendNANA
12:00 23.8 15.6 60 0.0       99.67 28   LegendNANA
13:00 24.6 14.1 52 0.0       99.59 28   LegendNANA
14:00 25.7 15.6 54 0.0       99.49 30   LegendNANA
15:00 27.0 15.4 49 0.0       99.43 31   LegendNANA
16:00 27.2 14.0 44 0.0       99.35 31   LegendNANA
17:00 26.9 13.2 43 0.0       99.33 30   LegendNANA
18:00 28.7 7.7 27 0.0       99.32 29   LegendNANA
19:00 26.7 10.3 36 0.0       99.31 28   LegendNANA
20:00 24.7 11.8 44 0.0       99.29 27   LegendNANA
21:00 22.3 11.2 49 0.0       99.37     LegendNANA
22:00 22.0 12.2 53 0.0       99.36     LegendNANA
23:00 21.4 13.0 59 0.0       99.34     LegendNANA

Notes on Data Quality.

Legend

  • E = Estimated
  • M = Missing
  • NA = Not Available*
  • [empty] = Indicates an unobserved value
Date modified: